Year,Month,Day,Hour,Minute,Value (Times are PST for windgust in km/hr)
2018,08,24,00,00,14.50
2018,08,24,00,01,19.30
2018,08,24,00,02,11.30
2018,08,24,00,03,11.30
2018,08,24,00,04,11.30
2018,08,24,00,05,9.60
2018,08,24,00,06,9.60
2018,08,24,00,07,9.60
2018,08,24,00,08,3.20
2018,08,24,00,09,9.60
2018,08,24,00,10,4.80
2018,08,24,00,11,11.30
2018,08,24,00,12,14.50
2018,08,24,00,13,9.60
2018,08,24,00,14,12.90
2018,08,24,00,15,11.30
2018,08,24,00,16,6.40
2018,08,24,00,17,4.80
2018,08,24,00,18,6.40
2018,08,24,00,19,12.90
2018,08,24,00,20,12.90
2018,08,24,00,21,8.10
2018,08,24,00,22,6.40
2018,08,24,00,23,8.10
2018,08,24,00,24,8.10
2018,08,24,00,25,6.40
2018,08,24,00,26,8.10
2018,08,24,00,27,1.60
2018,08,24,00,28,6.40
2018,08,24,00,29,9.60
2018,08,24,00,30,8.10
2018,08,24,00,31,8.10
2018,08,24,00,32,1.60
2018,08,24,00,33,4.80
2018,08,24,00,34,6.40
2018,08,24,00,35,6.40
2018,08,24,00,36,3.20
2018,08,24,00,38,1.60
2018,08,24,00,39,1.60
2018,08,24,00,40,1.60
2018,08,24,00,41,1.60
2018,08,24,00,42,1.60
2018,08,24,00,43,1.60
2018,08,24,00,44,1.60
2018,08,24,00,45,1.60
2018,08,24,00,47,1.60
2018,08,24,00,51,6.40
2018,08,24,01,03,4.80
2018,08,24,01,04,4.80
2018,08,24,01,08,1.60
2018,08,24,01,09,4.80
2018,08,24,01,10,4.80
2018,08,24,01,11,9.60
2018,08,24,01,12,6.40
2018,08,24,01,13,6.40
2018,08,24,01,14,3.20
2018,08,24,01,17,4.80
2018,08,24,01,18,4.80
2018,08,24,01,19,4.80
2018,08,24,01,20,1.60
2018,08,24,01,21,6.40
2018,08,24,01,22,4.80
2018,08,24,01,23,4.80
2018,08,24,01,24,3.20
2018,08,24,01,25,1.60
2018,08,24,01,34,3.20
2018,08,24,01,35,6.40
2018,08,24,01,36,4.80
2018,08,24,02,18,1.60
2018,08,24,02,30,1.60
2018,08,24,02,36,1.60
2018,08,24,02,39,1.60
2018,08,24,03,00,1.60
2018,08,24,03,01,1.60
2018,08,24,03,55,3.20
2018,08,24,03,56,3.20
2018,08,24,03,57,1.60
2018,08,24,03,58,1.60
2018,08,24,03,59,1.60
2018,08,24,04,00,1.60
2018,08,24,04,01,1.60
2018,08,24,04,02,3.20
2018,08,24,04,03,3.20
2018,08,24,04,04,4.80
2018,08,24,04,05,4.80
2018,08,24,04,06,3.20
2018,08,24,04,07,3.20
2018,08,24,04,08,1.60
2018,08,24,04,09,1.60
2018,08,24,04,10,1.60
2018,08,24,04,11,1.60
2018,08,24,04,12,1.60
2018,08,24,04,21,1.60
2018,08,24,04,33,1.60
2018,08,24,04,34,3.20
2018,08,24,04,35,1.60
2018,08,24,04,36,1.60
2018,08,24,04,51,1.60
2018,08,24,04,52,1.60
2018,08,24,05,19,3.20
2018,08,24,05,20,3.20
2018,08,24,05,21,1.60
2018,08,24,05,22,1.60
2018,08,24,05,26,1.60
2018,08,24,05,27,3.20
2018,08,24,05,28,3.20
2018,08,24,05,29,1.60
2018,08,24,05,30,1.60
2018,08,24,05,39,3.20
2018,08,24,05,40,4.80
2018,08,24,05,41,4.80
2018,08,24,05,42,1.60
2018,08,24,05,43,1.60
2018,08,24,05,49,1.60
2018,08,24,05,50,3.20
2018,08,24,05,51,3.20
2018,08,24,05,52,1.60
2018,08,24,05,53,1.60
2018,08,24,05,54,1.60
2018,08,24,06,02,1.60
2018,08,24,06,03,1.60
2018,08,24,06,04,1.60
2018,08,24,06,05,1.60
2018,08,24,06,07,1.60
2018,08,24,06,08,3.20
2018,08,24,06,09,4.80
2018,08,24,06,10,4.80
2018,08,24,06,11,3.20
2018,08,24,06,12,3.20
2018,08,24,06,13,3.20
2018,08,24,06,14,3.20
2018,08,24,06,15,1.60
2018,08,24,06,16,1.60
2018,08,24,06,17,1.60
2018,08,24,06,42,3.20
2018,08,24,06,43,1.60
2018,08,24,06,44,1.60
2018,08,24,06,48,4.80
2018,08,24,06,49,6.40
2018,08,24,06,50,4.80
2018,08,24,06,51,1.60
2018,08,24,06,52,1.60
2018,08,24,06,53,1.60
2018,08,24,06,54,1.60
2018,08,24,06,55,1.60
2018,08,24,06,56,1.60
2018,08,24,06,57,1.60
2018,08,24,07,00,3.20
2018,08,24,07,01,3.20
2018,08,24,07,05,1.60
2018,08,24,07,07,1.60
2018,08,24,07,43,4.80
2018,08,24,07,44,4.80
2018,08,24,07,45,4.80
2018,08,24,07,46,3.20
2018,08,24,07,51,1.60
2018,08,24,07,52,3.20
2018,08,24,07,53,3.20
2018,08,24,07,58,1.60
2018,08,24,07,59,1.60
2018,08,24,08,00,1.60
2018,08,24,08,13,1.60
2018,08,24,08,14,1.60
2018,08,24,08,15,1.60
2018,08,24,08,16,1.60
2018,08,24,08,17,1.60
2018,08,24,08,18,1.60
2018,08,24,08,26,1.60
2018,08,24,08,44,3.20
2018,08,24,08,45,3.20
2018,08,24,08,46,4.80
2018,08,24,08,47,4.80
2018,08,24,08,48,4.80
2018,08,24,08,49,4.80
2018,08,24,08,50,4.80
2018,08,24,08,51,3.20
2018,08,24,08,52,4.80
2018,08,24,08,53,4.80
2018,08,24,08,54,4.80
2018,08,24,08,55,6.40
2018,08,24,08,56,4.80
2018,08,24,08,57,3.20
2018,08,24,08,58,3.20
2018,08,24,08,59,4.80
2018,08,24,09,00,3.20
2018,08,24,09,01,3.20
2018,08,24,09,02,4.80
2018,08,24,09,03,4.80
2018,08,24,09,04,4.80
2018,08,24,09,05,8.10
2018,08,24,09,06,4.80
2018,08,24,09,07,4.80
2018,08,24,09,08,3.20
2018,08,24,09,09,3.20
2018,08,24,09,10,3.20
2018,08,24,09,11,4.80
2018,08,24,09,12,6.40
2018,08,24,09,13,8.10
2018,08,24,09,14,8.10
2018,08,24,09,15,4.80
2018,08,24,09,16,1.60
2018,08,24,09,17,3.20
2018,08,24,09,18,3.20
2018,08,24,09,19,3.20
2018,08,24,09,20,4.80
2018,08,24,09,21,6.40
2018,08,24,09,22,6.40
2018,08,24,09,23,8.10
2018,08,24,09,24,6.40
2018,08,24,09,25,6.40
2018,08,24,09,26,6.40
2018,08,24,09,27,6.40
2018,08,24,09,28,6.40
2018,08,24,09,29,8.10
2018,08,24,09,30,8.10
2018,08,24,09,31,6.40
2018,08,24,09,32,8.10
2018,08,24,09,33,9.60
2018,08,24,09,34,8.10
2018,08,24,09,35,8.10
2018,08,24,09,36,9.60
2018,08,24,09,37,8.10
2018,08,24,09,38,8.10
2018,08,24,09,39,6.40
2018,08,24,09,40,4.80
2018,08,24,09,41,9.60
2018,08,24,09,42,11.30
2018,08,24,09,43,8.10
2018,08,24,09,44,11.30
2018,08,24,09,45,12.90
2018,08,24,09,46,11.30
2018,08,24,09,47,8.10
2018,08,24,09,48,6.40
2018,08,24,09,49,6.40
2018,08,24,09,50,8.10
2018,08,24,09,51,9.60
2018,08,24,09,52,9.60
2018,08,24,09,53,11.30
2018,08,24,09,54,6.40
2018,08,24,09,55,9.60
2018,08,24,09,56,8.10
2018,08,24,09,57,8.10
2018,08,24,09,58,9.60
2018,08,24,09,59,4.80
2018,08,24,10,00,11.30
2018,08,24,10,01,11.30
2018,08,24,10,02,9.60
2018,08,24,10,03,8.10
2018,08,24,10,04,9.60
2018,08,24,10,05,8.10
2018,08,24,10,06,8.10
2018,08,24,10,07,8.10
2018,08,24,10,08,8.10
2018,08,24,10,09,9.60
2018,08,24,10,10,8.10
2018,08,24,10,11,8.10
2018,08,24,10,12,11.30
2018,08,24,10,13,6.40
2018,08,24,10,14,9.60
2018,08,24,10,15,8.10
2018,08,24,10,16,6.40
2018,08,24,10,17,6.40
2018,08,24,10,18,6.40
2018,08,24,10,19,8.10
2018,08,24,10,20,9.60
2018,08,24,10,21,6.40
2018,08,24,10,22,8.10
2018,08,24,10,23,1.60
2018,08,24,10,24,4.80
2018,08,24,10,25,3.20
2018,08,24,10,26,3.20
2018,08,24,10,27,4.80
2018,08,24,10,28,6.40
2018,08,24,10,29,8.10
2018,08,24,10,30,6.40
2018,08,24,10,31,4.80
2018,08,24,10,32,11.30
2018,08,24,10,33,9.60
2018,08,24,10,34,11.30
2018,08,24,10,35,8.10
2018,08,24,10,36,9.60
2018,08,24,10,37,8.10
2018,08,24,10,38,6.40
2018,08,24,10,39,9.60
2018,08,24,10,40,9.60
2018,08,24,10,41,9.60
2018,08,24,10,42,11.30
2018,08,24,10,43,9.60
2018,08,24,10,44,8.10
2018,08,24,10,45,9.60
2018,08,24,10,46,4.80
2018,08,24,10,47,6.40
2018,08,24,10,48,8.10
2018,08,24,10,49,8.10
2018,08,24,10,50,9.60
2018,08,24,10,51,9.60
2018,08,24,10,52,8.10
2018,08,24,10,53,6.40
2018,08,24,10,54,12.90
2018,08,24,10,55,12.90
2018,08,24,10,56,9.60
2018,08,24,10,57,8.10
2018,08,24,10,58,3.20
2018,08,24,10,59,4.80
2018,08,24,11,00,4.80
2018,08,24,11,01,4.80
2018,08,24,11,02,1.60
2018,08,24,11,03,8.10
2018,08,24,11,04,11.30
2018,08,24,11,05,12.90
2018,08,24,11,06,11.30
2018,08,24,11,07,8.10
2018,08,24,11,08,1.60
2018,08,24,11,09,6.40
2018,08,24,11,10,4.80
2018,08,24,11,11,3.20
2018,08,24,11,12,1.60
2018,08,24,11,13,1.60
2018,08,24,11,14,6.40
2018,08,24,11,15,4.80
2018,08,24,11,16,6.40
2018,08,24,11,17,8.10
2018,08,24,11,18,8.10
2018,08,24,11,19,8.10
2018,08,24,11,20,3.20
2018,08,24,11,21,4.80
2018,08,24,11,22,3.20
2018,08,24,11,23,9.60
2018,08,24,11,24,9.60
2018,08,24,11,25,8.10
2018,08,24,11,26,6.40
2018,08,24,11,27,3.20
2018,08,24,11,28,3.20
2018,08,24,11,29,3.20
2018,08,24,11,30,3.20
2018,08,24,11,31,3.20
2018,08,24,11,32,9.60
2018,08,24,11,33,9.60
2018,08,24,11,34,12.90
2018,08,24,11,35,11.30
2018,08,24,11,36,8.10
2018,08,24,11,37,6.40
2018,08,24,11,38,6.40
2018,08,24,11,39,3.20
2018,08,24,11,40,4.80
2018,08,24,11,41,8.10
2018,08,24,11,42,11.30
2018,08,24,11,43,11.30
2018,08,24,11,44,8.10
2018,08,24,11,45,4.80
2018,08,24,11,46,4.80
2018,08,24,11,47,9.60
2018,08,24,11,48,8.10
2018,08,24,11,49,8.10
2018,08,24,11,50,11.30
2018,08,24,11,51,3.20
2018,08,24,11,52,1.60
2018,08,24,11,53,4.80
2018,08,24,11,54,4.80
2018,08,24,11,55,11.30
2018,08,24,11,56,9.60
2018,08,24,11,57,8.10
2018,08,24,11,58,4.80
2018,08,24,11,59,1.60
2018,08,24,12,00,8.10
2018,08,24,12,01,4.80
2018,08,24,12,02,4.80
2018,08,24,12,03,8.10
2018,08,24,12,04,8.10
2018,08,24,12,05,8.10
2018,08,24,12,06,4.80
2018,08,24,12,07,12.90
2018,08,24,12,08,14.50
2018,08,24,12,09,12.90
2018,08,24,12,10,11.30
2018,08,24,12,11,12.90
2018,08,24,12,12,6.40
2018,08,24,12,13,9.60
2018,08,24,12,14,8.10
2018,08,24,12,15,9.60
2018,08,24,12,16,8.10
2018,08,24,12,17,4.80
2018,08,24,12,18,8.10
2018,08,24,12,19,11.30
2018,08,24,12,20,8.10
2018,08,24,12,21,1.60
2018,08,24,12,22,8.10
2018,08,24,12,23,6.40
2018,08,24,12,24,8.10
2018,08,24,12,25,11.30
2018,08,24,12,26,12.90
2018,08,24,12,27,11.30
2018,08,24,12,28,9.60
2018,08,24,12,29,9.60
2018,08,24,12,30,8.10
2018,08,24,12,31,3.20
2018,08,24,12,32,9.60
2018,08,24,12,33,4.80
2018,08,24,12,34,9.60
2018,08,24,12,35,9.60
2018,08,24,12,36,4.80
2018,08,24,12,37,4.80
2018,08,24,12,38,3.20
2018,08,24,12,39,6.40
2018,08,24,12,40,8.10
2018,08,24,12,41,3.20
2018,08,24,12,42,3.20
2018,08,24,12,43,3.20
2018,08,24,12,44,3.20
2018,08,24,12,45,1.60
2018,08,24,12,46,4.80
2018,08,24,12,47,9.60
2018,08,24,12,48,6.40
2018,08,24,12,49,1.60
2018,08,24,12,50,6.40
2018,08,24,12,51,4.80
2018,08,24,12,52,4.80
2018,08,24,12,53,8.10
2018,08,24,12,54,8.10
2018,08,24,12,55,8.10
2018,08,24,12,56,9.60
2018,08,24,12,57,9.60
2018,08,24,12,58,12.90
2018,08,24,12,59,8.10
2018,08,24,13,00,4.80
2018,08,24,13,01,3.20
2018,08,24,13,02,14.50
2018,08,24,13,03,9.60
2018,08,24,13,04,12.90
2018,08,24,13,05,12.90
2018,08,24,13,06,12.90
2018,08,24,13,07,9.60
2018,08,24,13,08,9.60
2018,08,24,13,09,8.10
2018,08,24,13,10,6.40
2018,08,24,13,11,8.10
2018,08,24,13,12,9.60
2018,08,24,13,13,9.60
2018,08,24,13,14,3.20
2018,08,24,13,15,9.60
2018,08,24,13,16,9.60
2018,08,24,13,17,8.10
2018,08,24,13,18,8.10
2018,08,24,13,19,3.20
2018,08,24,13,20,4.80
2018,08,24,13,21,8.10
2018,08,24,13,22,6.40
2018,08,24,13,23,8.10
2018,08,24,13,24,6.40
2018,08,24,13,25,3.20
2018,08,24,13,26,4.80
2018,08,24,13,27,4.80
2018,08,24,13,28,1.60
2018,08,24,13,29,6.40
2018,08,24,13,30,11.30
2018,08,24,13,31,6.40
2018,08,24,13,32,4.80
2018,08,24,13,33,9.60
2018,08,24,13,34,9.60
2018,08,24,13,35,8.10
2018,08,24,13,36,8.10
2018,08,24,13,37,8.10
2018,08,24,13,38,9.60
2018,08,24,13,39,4.80
2018,08,24,13,40,6.40
2018,08,24,13,41,6.40
2018,08,24,13,42,3.20
2018,08,24,13,43,9.60
2018,08,24,13,44,6.40
2018,08,24,13,45,4.80
2018,08,24,13,46,3.20
2018,08,24,13,47,9.60
2018,08,24,13,48,8.10
2018,08,24,13,49,11.30
2018,08,24,13,50,4.80
2018,08,24,13,51,4.80
2018,08,24,13,52,1.60
2018,08,24,13,53,4.80
2018,08,24,13,54,11.30
2018,08,24,13,55,11.30
2018,08,24,13,56,11.30
2018,08,24,13,57,16.10
2018,08,24,13,58,9.60
2018,08,24,13,59,4.80
2018,08,24,14,00,16.10
2018,08,24,14,01,12.90
2018,08,24,14,02,12.90
2018,08,24,14,03,19.30
2018,08,24,14,04,17.70
2018,08,24,14,05,20.90
2018,08,24,14,06,17.70
2018,08,24,14,07,12.90
2018,08,24,14,08,12.90
2018,08,24,14,09,9.60
2018,08,24,14,10,12.90
2018,08,24,14,11,9.60
2018,08,24,14,12,8.10
2018,08,24,14,13,20.90
2018,08,24,14,14,17.70
2018,08,24,14,15,17.70
2018,08,24,14,16,16.10
2018,08,24,14,17,20.90
2018,08,24,14,18,20.90
2018,08,24,14,19,16.10
2018,08,24,14,20,16.10
2018,08,24,14,21,16.10
2018,08,24,14,22,20.90
2018,08,24,14,23,20.90
2018,08,24,14,24,22.50
2018,08,24,14,25,17.70
2018,08,24,14,26,19.30
2018,08,24,14,27,16.10
2018,08,24,14,28,16.10
2018,08,24,14,29,17.70
2018,08,24,14,30,20.90
2018,08,24,14,31,14.50
2018,08,24,14,32,16.10
2018,08,24,14,33,25.70
2018,08,24,14,34,24.20
2018,08,24,14,35,19.30
2018,08,24,14,36,17.70
2018,08,24,14,37,16.10
2018,08,24,14,38,19.30
2018,08,24,14,39,16.10
2018,08,24,14,40,16.10
2018,08,24,14,41,16.10
2018,08,24,14,42,16.10
2018,08,24,14,43,12.90
2018,08,24,14,44,16.10
2018,08,24,14,45,14.50
2018,08,24,14,46,14.50
2018,08,24,14,47,14.50
2018,08,24,14,48,16.10
2018,08,24,14,49,12.90
2018,08,24,14,50,19.30
2018,08,24,14,51,16.10
2018,08,24,14,52,20.90
2018,08,24,14,53,11.30
2018,08,24,14,54,17.70
2018,08,24,14,55,17.70
2018,08,24,14,56,19.30
2018,08,24,14,57,19.30
2018,08,24,14,58,22.50
2018,08,24,14,59,17.70
2018,08,24,15,00,22.50
2018,08,24,15,01,19.30
2018,08,24,15,02,17.70
2018,08,24,15,03,16.10
2018,08,24,15,04,22.50
2018,08,24,15,05,24.20
2018,08,24,15,06,32.20
2018,08,24,15,07,22.50
2018,08,24,15,08,16.10
2018,08,24,15,09,27.40
2018,08,24,15,10,32.20
2018,08,24,15,11,27.40
2018,08,24,15,12,24.20
2018,08,24,15,13,25.70
2018,08,24,15,14,22.50
2018,08,24,15,15,24.20
2018,08,24,15,16,27.40
2018,08,24,15,17,19.30
2018,08,24,15,18,20.90
2018,08,24,15,19,19.30
2018,08,24,15,20,19.30
2018,08,24,15,21,20.90
2018,08,24,15,22,17.70
2018,08,24,15,23,22.50
2018,08,24,15,24,22.50
2018,08,24,15,25,20.90
2018,08,24,15,26,22.50
2018,08,24,15,27,19.30
2018,08,24,15,28,24.20
2018,08,24,15,29,24.20
2018,08,24,15,30,20.90
2018,08,24,15,31,25.70
2018,08,24,15,32,25.70
2018,08,24,15,33,24.20
2018,08,24,15,34,17.70
2018,08,24,15,35,17.70
2018,08,24,15,36,16.10
2018,08,24,15,37,19.30
2018,08,24,15,38,22.50
2018,08,24,15,39,19.30
2018,08,24,15,40,24.20
2018,08,24,15,41,16.10
2018,08,24,15,42,16.10
2018,08,24,15,43,19.30
2018,08,24,15,44,17.70
2018,08,24,15,45,17.70
2018,08,24,15,46,20.90
2018,08,24,15,47,12.90
2018,08,24,15,48,24.20
2018,08,24,15,49,19.30
2018,08,24,15,50,20.90
2018,08,24,15,51,32.20
2018,08,24,15,52,24.20
2018,08,24,15,53,19.30
2018,08,24,15,54,24.20
2018,08,24,15,55,24.20
2018,08,24,15,56,22.50
2018,08,24,15,57,17.70
2018,08,24,15,58,17.70
2018,08,24,15,59,14.50
2018,08,24,16,00,16.10
2018,08,24,16,01,17.70
2018,08,24,16,02,22.50
2018,08,24,16,03,25.70
2018,08,24,16,04,24.20
2018,08,24,16,05,24.20
2018,08,24,16,06,24.20
2018,08,24,16,07,24.20
2018,08,24,16,08,27.40
2018,08,24,16,09,25.70
2018,08,24,16,10,22.50
2018,08,24,16,11,22.50
2018,08,24,16,12,25.70
2018,08,24,16,13,22.50
2018,08,24,16,14,20.90
2018,08,24,16,15,20.90
2018,08,24,16,16,22.50
2018,08,24,16,17,24.20
2018,08,24,16,18,22.50
2018,08,24,16,19,24.20
2018,08,24,16,20,24.20
2018,08,24,16,21,20.90
2018,08,24,16,22,17.70
2018,08,24,16,23,20.90
2018,08,24,16,24,20.90
2018,08,24,16,25,29.00
2018,08,24,16,26,20.90
2018,08,24,16,27,24.20
2018,08,24,16,28,22.50
2018,08,24,16,29,25.70
2018,08,24,16,30,30.60
2018,08,24,16,31,29.00
2018,08,24,16,32,24.20
2018,08,24,16,33,25.70
2018,08,24,16,34,27.40
2018,08,24,16,35,25.70
2018,08,24,16,36,22.50
2018,08,24,16,37,22.50
2018,08,24,16,38,20.90
2018,08,24,16,39,24.20
2018,08,24,16,40,27.40
2018,08,24,16,41,17.70
2018,08,24,16,42,16.10
2018,08,24,16,43,20.90
2018,08,24,16,44,30.60
2018,08,24,16,45,24.20
2018,08,24,16,46,27.40
2018,08,24,16,47,19.30
2018,08,24,16,48,17.70
2018,08,24,16,49,20.90
2018,08,24,16,50,22.50
2018,08,24,16,51,19.30
2018,08,24,16,52,22.50
2018,08,24,16,53,14.50
2018,08,24,16,54,19.30
2018,08,24,16,55,24.20
2018,08,24,16,56,19.30
2018,08,24,16,57,20.90
2018,08,24,16,58,14.50
2018,08,24,16,59,25.70
2018,08,24,17,00,27.40
2018,08,24,17,01,24.20
2018,08,24,17,02,24.20
2018,08,24,17,03,24.20
2018,08,24,17,04,16.10
2018,08,24,17,05,17.70
2018,08,24,17,06,17.70
2018,08,24,17,07,19.30
2018,08,24,17,08,20.90
2018,08,24,17,09,20.90
2018,08,24,17,10,17.70
2018,08,24,17,11,17.70
2018,08,24,17,12,24.20
2018,08,24,17,13,20.90
2018,08,24,17,14,27.40
2018,08,24,17,15,20.90
2018,08,24,17,16,19.30
2018,08,24,17,17,17.70
2018,08,24,17,18,19.30
2018,08,24,17,19,19.30
2018,08,24,17,20,29.00
2018,08,24,17,21,22.50
2018,08,24,17,22,29.00
2018,08,24,17,23,24.20
2018,08,24,17,24,20.90
2018,08,24,17,25,22.50
2018,08,24,17,26,24.20
2018,08,24,17,27,25.70
2018,08,24,17,28,24.20
2018,08,24,17,29,22.50
2018,08,24,17,30,22.50
2018,08,24,17,31,19.30
2018,08,24,17,32,16.10
2018,08,24,17,33,25.70
2018,08,24,17,34,20.90
2018,08,24,17,35,20.90
2018,08,24,17,36,20.90
2018,08,24,17,37,25.70
2018,08,24,17,38,16.10
2018,08,24,17,39,14.50
2018,08,24,17,40,19.30
2018,08,24,17,41,20.90
2018,08,24,17,42,25.70
2018,08,24,17,43,25.70
2018,08,24,17,44,19.30
2018,08,24,17,45,22.50
2018,08,24,17,46,25.70
2018,08,24,17,47,19.30
2018,08,24,17,48,17.70
2018,08,24,17,49,22.50
2018,08,24,17,50,17.70
2018,08,24,17,51,19.30
2018,08,24,17,52,19.30
2018,08,24,17,53,25.70
2018,08,24,17,54,16.10
2018,08,24,17,55,19.30
2018,08,24,17,56,25.70
2018,08,24,17,57,17.70
2018,08,24,17,58,25.70
2018,08,24,17,59,14.50
2018,08,24,18,00,16.10
2018,08,24,18,01,17.70
2018,08,24,18,02,22.50
2018,08,24,18,03,19.30
2018,08,24,18,04,20.90
2018,08,24,18,05,12.90
2018,08,24,18,06,24.20
2018,08,24,18,07,19.30
2018,08,24,18,08,14.50
2018,08,24,18,09,12.90
2018,08,24,18,10,16.10
2018,08,24,18,11,19.30
2018,08,24,18,12,27.40
2018,08,24,18,13,29.00
2018,08,24,18,14,22.50
2018,08,24,18,15,20.90
2018,08,24,18,16,19.30
2018,08,24,18,17,24.20
2018,08,24,18,18,14.50
2018,08,24,18,19,11.30
2018,08,24,18,20,25.70
2018,08,24,18,21,20.90
2018,08,24,18,22,17.70
2018,08,24,18,23,29.00
2018,08,24,18,24,27.40
2018,08,24,18,25,24.20
2018,08,24,18,26,19.30
2018,08,24,18,27,14.50
2018,08,24,18,28,22.50
2018,08,24,18,29,24.20
2018,08,24,18,30,19.30
2018,08,24,18,31,22.50
2018,08,24,18,32,14.50
2018,08,24,18,33,14.50
2018,08,24,18,34,8.10
2018,08,24,18,35,19.30
2018,08,24,18,36,24.20
2018,08,24,18,37,25.70
2018,08,24,18,38,14.50
2018,08,24,18,39,14.50
2018,08,24,18,40,16.10
2018,08,24,18,41,14.50
2018,08,24,18,42,17.70
2018,08,24,18,43,17.70
2018,08,24,18,44,17.70
2018,08,24,18,45,20.90
2018,08,24,18,46,17.70
2018,08,24,18,47,17.70
2018,08,24,18,48,17.70
2018,08,24,18,49,22.50
2018,08,24,18,50,22.50
2018,08,24,18,51,14.50
2018,08,24,18,52,14.50
2018,08,24,18,53,19.30
2018,08,24,18,54,24.20
2018,08,24,18,55,16.10
2018,08,24,18,56,27.40
2018,08,24,18,57,25.70
2018,08,24,18,58,17.70
2018,08,24,18,59,25.70
2018,08,24,19,00,20.90
2018,08,24,19,01,20.90
2018,08,24,19,02,14.50
2018,08,24,19,03,11.30
2018,08,24,19,04,12.90
2018,08,24,19,05,12.90
2018,08,24,19,06,16.10
2018,08,24,19,07,14.50
2018,08,24,19,08,14.50
2018,08,24,19,09,14.50
2018,08,24,19,10,12.90
2018,08,24,19,11,14.50
2018,08,24,19,12,12.90
2018,08,24,19,13,6.40
2018,08,24,19,14,3.20
2018,08,24,19,15,3.20
2018,08,24,19,16,14.50
2018,08,24,19,17,9.60
2018,08,24,19,18,14.50
2018,08,24,19,19,14.50
2018,08,24,19,20,11.30
2018,08,24,19,21,12.90
2018,08,24,19,22,14.50
2018,08,24,19,23,9.60
2018,08,24,19,24,6.40
2018,08,24,19,25,11.30
2018,08,24,19,26,14.50
2018,08,24,19,27,12.90
2018,08,24,19,28,8.10
2018,08,24,19,29,8.10
2018,08,24,19,30,8.10
2018,08,24,19,31,11.30
2018,08,24,19,32,9.60
2018,08,24,19,33,8.10
2018,08,24,19,34,8.10
2018,08,24,19,35,9.60
2018,08,24,19,36,6.40
2018,08,24,19,37,12.90
2018,08,24,19,38,11.30
2018,08,24,19,39,12.90
2018,08,24,19,40,4.80
2018,08,24,19,41,6.40
2018,08,24,19,42,6.40
2018,08,24,19,43,6.40
2018,08,24,19,44,6.40
2018,08,24,19,45,4.80
2018,08,24,19,46,6.40
2018,08,24,19,47,8.10
2018,08,24,19,48,8.10
2018,08,24,19,49,4.80
2018,08,24,19,50,8.10
2018,08,24,19,51,3.20
2018,08,24,19,52,9.60
2018,08,24,19,53,8.10
2018,08,24,19,54,4.80
2018,08,24,19,55,9.60
2018,08,24,19,56,11.30
2018,08,24,19,57,11.30
2018,08,24,19,58,9.60
2018,08,24,19,59,11.30
2018,08,24,20,00,11.30
2018,08,24,20,01,14.50
2018,08,24,20,02,12.90
2018,08,24,20,03,12.90
2018,08,24,20,04,12.90
2018,08,24,20,05,12.90
2018,08,24,20,06,14.50
2018,08,24,20,07,11.30
2018,08,24,20,08,12.90
2018,08,24,20,09,12.90
2018,08,24,20,10,11.30
2018,08,24,20,11,9.60
2018,08,24,20,12,11.30
2018,08,24,20,13,8.10
2018,08,24,20,14,6.40
2018,08,24,20,15,8.10
2018,08,24,20,16,12.90
2018,08,24,20,17,12.90
2018,08,24,20,18,9.60
2018,08,24,20,19,9.60
2018,08,24,20,20,3.20
2018,08,24,20,21,8.10
2018,08,24,20,22,11.30
2018,08,24,20,23,11.30
2018,08,24,20,24,8.10
2018,08,24,20,25,8.10
2018,08,24,20,26,4.80
2018,08,24,20,27,11.30
2018,08,24,20,28,11.30
2018,08,24,20,29,11.30
2018,08,24,20,30,8.10
2018,08,24,20,31,11.30
2018,08,24,20,32,11.30
2018,08,24,20,33,8.10
2018,08,24,20,34,4.80
2018,08,24,20,35,8.10
2018,08,24,20,36,12.90
2018,08,24,20,37,8.10
2018,08,24,20,38,8.10
2018,08,24,20,39,9.60
2018,08,24,20,40,12.90
2018,08,24,20,41,12.90
2018,08,24,20,42,9.60
2018,08,24,20,43,12.90
2018,08,24,20,44,14.50
2018,08,24,20,45,12.90
2018,08,24,20,46,6.40
2018,08,24,20,47,11.30
2018,08,24,20,48,11.30
2018,08,24,20,49,9.60
2018,08,24,20,50,6.40
2018,08,24,20,51,8.10
2018,08,24,20,52,8.10
2018,08,24,20,53,3.20
2018,08,24,20,54,8.10
2018,08,24,20,55,9.60
2018,08,24,20,56,4.80
2018,08,24,20,57,1.60
2018,08,24,21,00,4.80
2018,08,24,21,01,3.20
2018,08,24,21,02,6.40
2018,08,24,21,03,6.40
2018,08,24,21,04,8.10
2018,08,24,21,05,6.40
2018,08,24,21,07,4.80
2018,08,24,21,08,4.80
2018,08,24,21,09,3.20
2018,08,24,21,10,9.60
2018,08,24,21,11,8.10
2018,08,24,21,13,8.10
2018,08,24,21,14,9.60
2018,08,24,21,15,11.30
2018,08,24,21,16,8.10
2018,08,24,21,17,9.60
2018,08,24,21,18,8.10
2018,08,24,21,19,4.80
2018,08,24,21,20,1.60
2018,08,24,21,21,1.60
2018,08,24,21,22,3.20
2018,08,24,21,23,11.30
2018,08,24,21,24,11.30
2018,08,24,21,25,6.40
2018,08,24,21,29,3.20
2018,08,24,21,31,1.60
2018,08,24,21,32,1.60
2018,08,24,21,34,1.60
2018,08,24,21,35,1.60
2018,08,24,21,38,1.60
2018,08,24,21,39,1.60
2018,08,24,21,42,1.60
2018,08,24,21,45,1.60
2018,08,24,21,46,3.20
2018,08,24,21,48,1.60
2018,08,24,21,49,1.60
2018,08,24,21,50,3.20
2018,08,24,21,51,1.60
2018,08,24,21,52,6.40
2018,08,24,21,55,1.60
2018,08,24,21,58,1.60
2018,08,24,21,59,4.80
2018,08,24,22,00,6.40
2018,08,24,22,01,4.80
2018,08,24,22,02,1.60
2018,08,24,22,03,1.60
2018,08,24,22,04,1.60
2018,08,24,22,05,1.60
2018,08,24,22,06,1.60
2018,08,24,22,07,3.20
2018,08,24,22,08,3.20
2018,08,24,22,09,3.20
2018,08,24,22,10,1.60
2018,08,24,22,11,1.60
2018,08,24,22,14,1.60
2018,08,24,22,15,3.20
2018,08,24,22,16,4.80
2018,08,24,22,17,1.60
2018,08,24,22,18,1.60
2018,08,24,22,19,1.60
2018,08,24,22,20,1.60
2018,08,24,22,21,8.10
2018,08,24,22,22,4.80
2018,08,24,22,23,6.40
2018,08,24,22,24,6.40
2018,08,24,22,25,1.60
2018,08,24,22,26,1.60
2018,08,24,22,27,1.60
2018,08,24,22,28,1.60
2018,08,24,22,29,1.60
2018,08,24,22,30,3.20
2018,08,24,22,31,3.20
2018,08,24,22,32,1.60
2018,08,24,22,35,1.60
2018,08,24,22,36,1.60
2018,08,24,22,37,1.60
2018,08,24,22,38,1.60
2018,08,24,22,42,1.60
2018,08,24,22,44,1.60
2018,08,24,22,45,1.60
2018,08,24,22,46,3.20
2018,08,24,22,47,1.60
2018,08,24,22,48,1.60
2018,08,24,22,49,3.20
2018,08,24,22,50,3.20
2018,08,24,22,51,1.60
2018,08,24,22,52,1.60
2018,08,24,22,54,1.60
2018,08,24,22,55,1.60
2018,08,24,22,56,1.60
2018,08,24,22,57,1.60
2018,08,24,22,58,1.60
2018,08,24,22,59,3.20
2018,08,24,23,00,1.60
2018,08,24,23,04,1.60
2018,08,24,23,06,3.20
2018,08,24,23,07,1.60
2018,08,24,23,10,1.60
2018,08,24,23,11,1.60
2018,08,24,23,12,1.60
2018,08,24,23,13,1.60
2018,08,24,23,14,1.60
2018,08,24,23,15,1.60
2018,08,24,23,16,1.60
2018,08,24,23,17,1.60
2018,08,24,23,18,1.60
2018,08,24,23,19,1.60
2018,08,24,23,20,1.60
2018,08,24,23,36,1.60
2018,08,24,23,37,1.60
2018,08,24,23,38,1.60
2018,08,24,23,39,1.60
2018,08,24,23,41,1.60
2018,08,24,23,42,1.60
2018,08,24,23,44,1.60
2018,08,24,23,45,1.60
2018,08,24,23,59,1.60
